FDX9900 EKCH-ENBR

Flight info

Callsign FDX9900
Flight time 1h 28m
Altitude 36000
Route GOLGA DCT BADAB
Aircraft B77L/H-SDE1E2E3FGHIJ2J3J4J5M1RWXY/LB1D1

Departure

Time 2026-05-05 19:46
Airport Copenhagen Kastrup Airport (EKCH)

Arrival

Time 2026-05-05 21:14
Airport Bergen Airport, Flesland (ENBR)
Time Latitude Longitude Altitude Speed Heading
2026-05-05 19:15 55.61878 12.67144 20 ft 0 kts 78°
2026-05-05 19:33 55.61874 12.67108 24 ft 4 kts 78°
2026-05-05 19:33 55.61870 12.67072 23 ft 4 kts 78°
2026-05-05 19:34 55.61864 12.67026 25 ft 4 kts 81°
2026-05-05 19:34 55.61862 12.66986 25 ft 4 kts 114°
2026-05-05 19:34 55.61859 12.66980 26 ft 3 kts 168°
2026-05-05 19:35 55.61890 12.66968 26 ft 1 kts 168°
2026-05-05 19:37 55.61887 12.66970 20 ft 2 kts 167°
2026-05-05 19:37 55.61850 12.66985 21 ft 9 kts 169°
2026-05-05 19:38 55.61768 12.67011 19 ft 15 kts 169°
2026-05-05 19:38 55.61648 12.67052 19 ft 19 kts 167°
2026-05-05 19:38 55.61519 12.67100 20 ft 19 kts 168°
2026-05-05 19:38 55.61390 12.67131 24 ft 19 kts 180°
2026-05-05 19:39 55.61285 12.67025 30 ft 19 kts 264°
2026-05-05 19:39 55.61344 12.66819 28 ft 19 kts 303°
2026-05-05 19:39 55.61415 12.66624 25 ft 19 kts 303°
2026-05-05 19:39 55.61489 12.66421 26 ft 20 kts 302°
2026-05-05 19:40 55.61563 12.66220 26 ft 20 kts 303°
2026-05-05 19:40 55.61640 12.66016 27 ft 21 kts 303°
2026-05-05 19:40 55.61728 12.65784 28 ft 24 kts 304°
2026-05-05 19:40 55.61827 12.65508 29 ft 29 kts 302°
2026-05-05 19:41 55.61944 12.65190 25 ft 32 kts 303°
2026-05-05 19:41 55.61974 12.64901 25 ft 23 kts 219°
2026-05-05 19:41 55.61838 12.64754 28 ft 23 kts 213°
2026-05-05 19:41 55.61702 12.64598 31 ft 23 kts 213°
2026-05-05 19:42 55.61567 12.64441 27 ft 23 kts 213°
2026-05-05 19:42 55.61436 12.64287 31 ft 23 kts 214°
2026-05-05 19:42 55.61343 12.64178 29 ft 24 kts 213°
2026-05-05 19:42 55.61202 12.64025 25 ft 24 kts 213°
2026-05-05 19:43 55.61065 12.63864 28 ft 24 kts 214°
2026-05-05 19:43 55.60928 12.63701 30 ft 24 kts 214°
2026-05-05 19:43 55.60743 12.63493 26 ft 24 kts 214°
2026-05-05 19:43 55.60648 12.63375 27 ft 25 kts 218°
2026-05-05 19:44 55.60467 12.63265 29 ft 21 kts 138°
2026-05-05 19:44 55.60412 12.63406 27 ft 21 kts 95°
2026-05-05 19:44 55.60453 12.63529 29 ft 0 kts 44°
2026-05-05 19:45 55.60489 12.63586 31 ft 35 kts 41°
2026-05-05 19:45 55.60897 12.64209 30 ft 118 kts 40°
2026-05-05 19:46 55.61699 12.65437 36 ft 182 kts 39°
2026-05-05 19:46 55.62672 12.66986 578 ft 192 kts 39°
2026-05-05 19:46 55.63702 12.68583 1338 ft 201 kts 39°
2026-05-05 19:46 55.64824 12.70308 1817 ft 229 kts 39°
2026-05-05 19:47 55.66250 12.71665 2477 ft 241 kts 11°
2026-05-05 19:47 55.67942 12.71462 3378 ft 251 kts 340°
2026-05-05 19:47 55.69458 12.69907 4295 ft 254 kts 333°
2026-05-05 19:47 55.71185 12.69247 5072 ft 255 kts
2026-05-05 19:48 55.72965 12.69483 5956 ft 260 kts
2026-05-05 19:48 55.74775 12.69415 6611 ft 260 kts 356°
2026-05-05 19:48 55.76602 12.69230 6952 ft 265 kts 353°
2026-05-05 19:48 55.78309 12.68137 6936 ft 263 kts 321°
2026-05-05 19:49 55.79619 12.65884 7144 ft 264 kts 313°
2026-05-05 19:49 55.80912 12.63504 7975 ft 270 kts 313°
2026-05-05 19:49 55.82227 12.61108 9001 ft 271 kts 312°
2026-05-05 19:49 55.83548 12.58722 9972 ft 273 kts 312°
2026-05-05 19:50 55.84896 12.56301 10846 ft 276 kts 311°
2026-05-05 19:50 55.86238 12.53903 11724 ft 278 kts 311°
2026-05-05 19:50 55.87631 12.51423 12625 ft 281 kts 311°
2026-05-05 19:50 55.89023 12.48952 13501 ft 284 kts 311°
2026-05-05 19:51 55.90427 12.46461 14331 ft 286 kts 310°
2026-05-05 19:51 55.91829 12.43976 15115 ft 289 kts 310°
2026-05-05 19:51 55.93266 12.41427 15766 ft 298 kts 310°
2026-05-05 19:51 55.94787 12.38717 15984 ft 322 kts 310°
2026-05-05 19:52 55.96426 12.35794 16201 ft 344 kts 310°
2026-05-05 19:52 55.98158 12.32715 16777 ft 355 kts 310°
2026-05-05 19:52 55.99929 12.29573 17526 ft 362 kts 310°
2026-05-05 19:52 56.01718 12.26399 18351 ft 365 kts 310°
2026-05-05 19:53 56.03529 12.23182 19117 ft 368 kts 310°
2026-05-05 19:53 56.05351 12.19937 19851 ft 371 kts 310°
2026-05-05 19:53 56.07191 12.16652 20566 ft 375 kts 310°
2026-05-05 19:53 56.09043 12.13339 21283 ft 379 kts 309°
2026-05-05 19:54 56.10916 12.09985 22006 ft 382 kts 309°
2026-05-05 19:54 56.12804 12.06598 22703 ft 386 kts 309°
2026-05-05 19:54 56.14710 12.03171 23435 ft 390 kts 309°
2026-05-05 19:54 56.16631 11.99715 24026 ft 393 kts 309°
2026-05-05 19:55 56.18568 11.96222 24609 ft 397 kts 309°
2026-05-05 19:55 56.20524 11.92692 25193 ft 400 kts 309°
2026-05-05 19:55 56.22492 11.89136 25770 ft 403 kts 309°
2026-05-05 19:55 56.24476 11.85544 26331 ft 407 kts 309°
2026-05-05 19:56 56.26482 11.81906 26895 ft 410 kts 309°
2026-05-05 19:56 56.28501 11.78240 27443 ft 414 kts 309°
2026-05-05 19:56 56.30537 11.74538 27987 ft 418 kts 309°
2026-05-05 19:56 56.32583 11.70809 28521 ft 421 kts 309°
2026-05-05 19:57 56.34651 11.67030 29081 ft 424 kts 309°
2026-05-05 19:57 56.36727 11.63211 29588 ft 428 kts 308°
2026-05-05 19:57 56.38811 11.59365 30082 ft 431 kts 308°
2026-05-05 19:57 56.40918 11.55468 30472 ft 434 kts 308°
2026-05-05 19:58 56.43033 11.51551 30887 ft 437 kts 308°
2026-05-05 19:58 56.45166 11.47597 31282 ft 440 kts 308°
2026-05-05 19:58 56.47302 11.43632 31663 ft 443 kts 308°
2026-05-05 19:58 56.49458 11.39622 31937 ft 447 kts 308°
2026-05-05 19:59 56.51640 11.35556 32229 ft 450 kts 308°
2026-05-05 19:59 56.53816 11.31499 32698 ft 449 kts 308°
2026-05-05 19:59 56.55986 11.27449 33225 ft 446 kts 308°
2026-05-05 19:59 56.58146 11.23412 33735 ft 445 kts 308°
2026-05-05 20:00 56.60297 11.19381 34139 ft 444 kts 308°
2026-05-05 20:00 56.62436 11.15363 34441 ft 443 kts 308°
2026-05-05 20:00 56.64578 11.11330 34651 ft 444 kts 308°
2026-05-05 20:00 56.66703 11.07321 34845 ft 445 kts 308°
2026-05-05 20:01 56.68847 11.03269 35101 ft 445 kts 308°
2026-05-05 20:01 56.70997 10.99200 35351 ft 446 kts 308°
2026-05-05 20:01 56.73144 10.95131 35603 ft 445 kts 308°
2026-05-05 20:01 56.75319 10.91002 35824 ft 446 kts 308°
2026-05-05 20:02 56.77440 10.86965 35773 ft 449 kts 308°
2026-05-05 20:02 56.81767 10.78709 35908 ft 454 kts 308°
2026-05-05 20:03 56.86175 10.70264 35973 ft 464 kts 308°
2026-05-05 20:03 56.90656 10.61654 35976 ft 469 kts 308°
2026-05-05 20:04 56.95177 10.52945 35971 ft 469 kts 308°
2026-05-05 20:04 56.99641 10.44316 35964 ft 464 kts 308°
2026-05-05 20:05 57.04069 10.35707 35989 ft 471 kts 308°
2026-05-05 20:05 57.08589 10.26883 35989 ft 477 kts 308°
2026-05-05 20:06 57.13150 10.17957 35973 ft 478 kts 308°
2026-05-05 20:06 57.17697 10.09028 35978 ft 477 kts 308°
2026-05-05 20:07 57.22218 10.00115 35986 ft 476 kts 308°
2026-05-05 20:07 57.26732 9.91177 35988 ft 474 kts 308°
2026-05-05 20:08 57.31150 9.82411 35970 ft 453 kts 307°
2026-05-05 20:08 57.35376 9.73992 35976 ft 443 kts 307°
2026-05-05 20:09 57.39544 9.65629 35971 ft 441 kts 307°
2026-05-05 20:09 57.43700 9.57266 35967 ft 440 kts 307°
2026-05-05 20:10 57.47845 9.48900 35962 ft 440 kts 307°
2026-05-05 20:10 57.51985 9.40518 35963 ft 440 kts 307°
2026-05-05 20:11 57.56122 9.32111 35964 ft 441 kts 307°
2026-05-05 20:11 57.60266 9.23661 35962 ft 442 kts 307°
2026-05-05 20:12 57.64411 9.15179 35964 ft 443 kts 307°
2026-05-05 20:12 57.68526 9.06727 35958 ft 443 kts 307°
2026-05-05 20:13 57.72692 8.98139 35956 ft 443 kts 307°
2026-05-05 20:13 57.76823 8.89593 35962 ft 442 kts 307°
2026-05-05 20:14 57.80918 8.81090 35954 ft 442 kts 307°
2026-05-05 20:14 57.85050 8.72478 35953 ft 441 kts 306°
2026-05-05 20:15 57.89116 8.63972 35949 ft 440 kts 306°
2026-05-05 20:15 57.93198 8.55399 35954 ft 440 kts 306°
2026-05-05 20:16 57.97262 8.46835 35959 ft 439 kts 306°
2026-05-05 20:16 58.01321 8.38250 35960 ft 439 kts 306°
2026-05-05 20:17 58.05371 8.29650 35965 ft 438 kts 306°
2026-05-05 20:17 58.09417 8.21028 35965 ft 438 kts 306°
2026-05-05 20:18 58.13449 8.12404 35973 ft 438 kts 306°
2026-05-05 20:18 58.17478 8.03754 35968 ft 438 kts 306°
2026-05-05 20:19 58.21494 7.95099 35974 ft 438 kts 306°
2026-05-05 20:19 58.25515 7.86403 35969 ft 438 kts 306°
2026-05-05 20:20 58.29521 7.77705 35969 ft 438 kts 306°
2026-05-05 20:20 58.33529 7.68972 35983 ft 437 kts 306°
2026-05-05 20:21 58.37497 7.60294 35984 ft 437 kts 306°
2026-05-05 20:21 58.41512 7.51476 35985 ft 437 kts 306°
2026-05-05 20:22 58.45466 7.42764 36004 ft 437 kts 305°
2026-05-05 20:22 58.49442 7.33967 36006 ft 437 kts 305°
2026-05-05 20:23 58.53405 7.25169 36007 ft 436 kts 305°
2026-05-05 20:23 58.57361 7.16353 36013 ft 437 kts 305°
2026-05-05 20:24 58.61312 7.07511 36021 ft 437 kts 305°
2026-05-05 20:24 58.65260 6.98643 36022 ft 438 kts 305°
2026-05-05 20:25 58.69202 6.89759 35788 ft 432 kts 305°
2026-05-05 20:25 58.71139 6.85389 35373 ft 426 kts 304°
2026-05-05 20:25 58.73027 6.81128 34764 ft 410 kts 304°
2026-05-05 20:25 58.74850 6.77004 33831 ft 400 kts 303°
2026-05-05 20:26 58.76631 6.72961 32648 ft 393 kts 303°
2026-05-05 20:26 58.78381 6.68972 31656 ft 382 kts 303°
2026-05-05 20:26 58.80045 6.65190 31356 ft 367 kts 303°
2026-05-05 20:26 58.81691 6.61420 30897 ft 366 kts 303°
2026-05-05 20:27 58.83327 6.57657 30485 ft 369 kts 303°
2026-05-05 20:27 58.85002 6.53793 30034 ft 377 kts 303°
2026-05-05 20:27 58.86689 6.49908 29496 ft 378 kts 303°
2026-05-05 20:27 58.88371 6.46042 29005 ft 374 kts 303°
2026-05-05 20:28 58.90039 6.42208 28536 ft 370 kts 303°
2026-05-05 20:28 58.91682 6.38426 28096 ft 365 kts 303°
2026-05-05 20:28 58.92755 6.35949 27795 ft 362 kts 303°
2026-05-05 20:28 58.94907 6.30971 27213 ft 357 kts 303°
2026-05-05 20:29 58.96467 6.27352 26781 ft 353 kts 303°
2026-05-05 20:29 58.98036 6.23707 26347 ft 350 kts 303°
2026-05-05 20:29 58.99081 6.21274 26062 ft 348 kts 303°
2026-05-05 20:29 59.00624 6.17683 25643 ft 345 kts 303°
2026-05-05 20:30 59.02158 6.14107 25247 ft 342 kts 303°
2026-05-05 20:30 59.03671 6.10572 24843 ft 340 kts 303°
2026-05-05 20:30 59.05182 6.07041 24431 ft 338 kts 303°
2026-05-05 20:30 59.06871 6.03881 24009 ft 343 kts 317°
2026-05-05 20:31 59.08991 6.01655 23630 ft 353 kts 331°
2026-05-05 20:31 59.11396 6.00419 23206 ft 359 kts 339°
2026-05-05 20:31 59.13849 5.99514 22758 ft 358 kts 341°
2026-05-05 20:31 59.16298 5.98669 22353 ft 356 kts 341°
2026-05-05 20:32 59.18723 5.97824 21971 ft 352 kts 340°
2026-05-05 20:32 59.21118 5.96961 21575 ft 349 kts 340°
2026-05-05 20:32 59.23491 5.96084 21194 ft 346 kts 340°
2026-05-05 20:32 59.25850 5.95197 20823 ft 343 kts 340°
2026-05-05 20:33 59.28175 5.94311 20447 ft 340 kts 340°
2026-05-05 20:33 59.30487 5.93423 20070 ft 337 kts 339°
2026-05-05 20:33 59.32777 5.92541 19698 ft 334 kts 339°
2026-05-05 20:33 59.35050 5.91665 19336 ft 331 kts 339°
2026-05-05 20:34 59.37309 5.90794 18965 ft 329 kts 340°
2026-05-05 20:34 59.39539 5.89933 18605 ft 326 kts 339°
2026-05-05 20:34 59.41759 5.89076 18222 ft 324 kts 340°
2026-05-05 20:34 59.43963 5.88281 17815 ft 323 kts 343°
2026-05-05 20:35 59.46202 5.87820 17432 ft 323 kts 347°
2026-05-05 20:35 59.48437 5.87501 17064 ft 321 kts 348°
2026-05-05 20:35 59.50669 5.87193 16720 ft 322 kts 348°
2026-05-05 20:35 59.52933 5.86857 16357 ft 331 kts 348°
2026-05-05 20:36 59.55217 5.86505 15961 ft 334 kts 349°
2026-05-05 20:36 59.57560 5.86141 15571 ft 331 kts 349°
2026-05-05 20:36 59.59807 5.85785 15242 ft 326 kts 349°
2026-05-05 20:36 59.62087 5.85413 14852 ft 323 kts 350°
2026-05-05 20:37 59.64310 5.85049 14497 ft 318 kts 351°
2026-05-05 20:37 59.66476 5.84694 14143 ft 315 kts 351°
2026-05-05 20:37 59.68643 5.84334 13799 ft 311 kts 351°
2026-05-05 20:37 59.70814 5.83976 13406 ft 308 kts 352°
2026-05-05 20:38 59.72944 5.83626 13029 ft 304 kts 352°
2026-05-05 20:38 59.75040 5.83280 12680 ft 301 kts 352°
2026-05-05 20:38 59.77098 5.82938 12350 ft 301 kts 352°
2026-05-05 20:38 59.79202 5.82587 12022 ft 308 kts 352°
2026-05-05 20:39 59.81365 5.82225 11666 ft 315 kts 353°
2026-05-05 20:39 59.83544 5.82321 11281 ft 315 kts
2026-05-05 20:39 59.85696 5.83111 10940 ft 312 kts
2026-05-05 20:39 59.87796 5.84043 10612 ft 308 kts
2026-05-05 20:40 59.89887 5.84945 10458 ft 297 kts
2026-05-05 20:40 59.91875 5.85749 10338 ft 288 kts
2026-05-05 20:40 59.93791 5.86493 10184 ft 278 kts
2026-05-05 20:40 59.95672 5.87212 10074 ft 266 kts
2026-05-05 20:41 59.97430 5.87885 9959 ft 255 kts
2026-05-05 20:41 59.99171 5.88547 9670 ft 257 kts
2026-05-05 20:41 60.00949 5.89222 9369 ft 263 kts
2026-05-05 20:41 60.02741 5.89577 9044 ft 256 kts 349°
2026-05-05 20:42 60.04343 5.88320 8786 ft 244 kts 321°
2026-05-05 20:42 60.05464 5.85842 8494 ft 242 kts 302°
2026-05-05 20:42 60.06126 5.82663 8235 ft 249 kts 284°
2026-05-05 20:42 60.06400 5.79264 8130 ft 245 kts 270°
2026-05-05 20:43 60.05959 5.76092 7996 ft 239 kts 240°
2026-05-05 20:43 60.04881 5.73620 7777 ft 235 kts 221°
2026-05-05 20:43 60.03474 5.71993 7565 ft 236 kts 204°
2026-05-05 20:43 60.01914 5.70840 7394 ft 242 kts 201°
2026-05-05 20:44 60.00406 5.69405 7169 ft 239 kts 222°
2026-05-05 20:44 59.99187 5.67181 7008 ft 238 kts 224°
2026-05-05 20:44 59.97923 5.64993 6765 ft 242 kts 222°
2026-05-05 20:44 59.96710 5.62716 6576 ft 237 kts 236°
2026-05-05 20:45 59.95161 5.56942 6153 ft 234 kts 259°
2026-05-05 20:45 59.95209 5.53791 5974 ft 226 kts 290°
2026-05-05 20:45 59.96003 5.51137 5786 ft 224 kts 314°
2026-05-05 20:46 59.97247 5.49326 5580 ft 222 kts 337°
2026-05-05 20:46 59.98703 5.48330 5470 ft 221 kts 342°
2026-05-05 20:46 60.00187 5.47459 5237 ft 224 kts 342°
2026-05-05 20:46 60.01536 5.45946 4874 ft 226 kts 316°
2026-05-05 20:47 60.02623 5.43689 4635 ft 226 kts 315°
2026-05-05 20:47 60.03749 5.41470 4429 ft 228 kts 316°
2026-05-05 20:47 60.04861 5.39331 4218 ft 224 kts 316°
2026-05-05 20:47 60.05975 5.37214 4045 ft 217 kts 317°
2026-05-05 20:48 60.07068 5.35148 3836 ft 217 kts 317°
2026-05-05 20:48 60.08174 5.33060 3664 ft 216 kts 317°
2026-05-05 20:48 60.09236 5.31054 3472 ft 203 kts 317°
2026-05-05 20:48 60.10237 5.29205 3282 ft 186 kts 323°
2026-05-05 20:49 60.11365 5.28275 3100 ft 168 kts 346°
2026-05-05 20:49 60.12510 5.27656 2995 ft 171 kts 345°
2026-05-05 20:49 60.13648 5.27127 2851 ft 166 kts 348°
2026-05-05 20:49 60.14790 5.26704 2683 ft 167 kts 349°
2026-05-05 20:50 60.15942 5.26310 2509 ft 170 kts 350°
2026-05-05 20:50 60.17116 5.25916 2285 ft 170 kts 350°
2026-05-05 20:50 60.18267 5.25532 2091 ft 167 kts 350°
2026-05-05 20:50 60.19404 5.25152 1856 ft 165 kts 350°
2026-05-05 20:51 60.20540 5.24771 1601 ft 166 kts 350°
2026-05-05 20:51 60.21711 5.24379 1400 ft 181 kts 350°
2026-05-05 20:51 60.22985 5.23951 1233 ft 189 kts 350°
2026-05-05 20:51 60.24234 5.23533 1004 ft 173 kts 350°
2026-05-05 20:52 60.25376 5.23149 727 ft 160 kts 349°
2026-05-05 20:52 60.26492 5.22773 533 ft 163 kts 349°
2026-05-05 20:52 60.27607 5.22399 474 ft 165 kts 349°
2026-05-05 20:52 60.28780 5.22002 461 ft 187 kts 349°
2026-05-05 20:53 60.30171 5.21535 467 ft 209 kts 349°
2026-05-05 20:53 60.31613 5.21047 413 ft 210 kts 349°
2026-05-05 20:53 60.33067 5.20557 403 ft 214 kts 349°
2026-05-05 20:53 60.34544 5.20059 489 ft 216 kts 349°
2026-05-05 20:54 60.36022 5.19559 664 ft 215 kts 349°
2026-05-05 20:54 60.37500 5.19056 847 ft 217 kts 349°
2026-05-05 20:54 60.38988 5.18552 1328 ft 216 kts 350°
2026-05-05 20:54 60.40460 5.18055 1798 ft 216 kts 350°
2026-05-05 20:55 60.41947 5.17549 2093 ft 217 kts 350°
2026-05-05 20:55 60.43432 5.17046 2269 ft 217 kts 350°
2026-05-05 20:55 60.44931 5.16536 2430 ft 219 kts 350°
2026-05-05 20:55 60.46435 5.16024 2652 ft 220 kts 350°
2026-05-05 20:56 60.47945 5.15511 3014 ft 224 kts 350°
2026-05-05 20:56 60.49447 5.15000 2994 ft 214 kts 350°
2026-05-05 20:56 60.50937 5.14491 3009 ft 221 kts 350°
2026-05-05 20:56 60.52476 5.13965 3009 ft 226 kts 350°
2026-05-05 20:57 60.54026 5.13435 3003 ft 225 kts 350°
2026-05-05 20:57 60.55566 5.12907 2998 ft 223 kts 350°
2026-05-05 20:57 60.57096 5.12384 2986 ft 222 kts 349°
2026-05-05 20:57 60.58516 5.11350 3001 ft 220 kts 322°
2026-05-05 20:58 60.59483 5.08846 3012 ft 240 kts 291°
2026-05-05 20:58 60.59672 5.05417 2999 ft 251 kts 259°
2026-05-05 20:58 60.58916 5.02219 3015 ft 256 kts 229°
2026-05-05 20:58 60.57453 5.00191 2978 ft 259 kts 198°
2026-05-05 20:59 60.55673 5.00048 2977 ft 259 kts 163°
2026-05-05 20:59 60.54145 5.01876 3004 ft 256 kts 137°
2026-05-05 20:59 60.52878 5.04439 2999 ft 259 kts 133°
2026-05-05 20:59 60.51645 5.07043 2970 ft 251 kts 134°
2026-05-05 21:00 60.50464 5.09473 2971 ft 233 kts 135°
2026-05-05 21:00 60.49367 5.11692 3016 ft 213 kts 135°
2026-05-05 21:00 60.48363 5.13701 3014 ft 194 kts 135°
2026-05-05 21:00 60.47288 5.15229 2977 ft 190 kts 161°
2026-05-05 21:01 60.46011 5.15924 3010 ft 191 kts 165°
2026-05-05 21:01 60.44714 5.16558 2876 ft 194 kts 169°
2026-05-05 21:01 60.43415 5.17042 2649 ft 185 kts 171°
2026-05-05 21:01 60.42176 5.17466 2412 ft 177 kts 171°
2026-05-05 21:02 60.40970 5.17875 2188 ft 175 kts 171°
2026-05-05 21:02 60.39762 5.18283 1970 ft 176 kts 171°
2026-05-05 21:02 60.38553 5.18695 1743 ft 177 kts 171°
2026-05-05 21:02 60.37359 5.19100 1517 ft 176 kts 171°
2026-05-05 21:03 60.36144 5.19510 1269 ft 174 kts 171°
2026-05-05 21:03 60.35113 5.19861 1063 ft 173 kts 171°
2026-05-05 21:03 60.35039 5.19886 1052 ft 173 kts 171°
2026-05-05 21:03 60.34188 5.20174 868 ft 171 kts 171°
2026-05-05 21:04 60.33002 5.20575 681 ft 174 kts 171°
2026-05-05 21:04 60.31816 5.20975 454 ft 172 kts 171°
2026-05-05 21:04 60.30653 5.21369 301 ft 167 kts 171°
2026-05-05 21:04 60.29439 5.21777 334 ft 195 kts 171°
2026-05-05 21:05 60.27987 5.22267 336 ft 224 kts 171°
2026-05-05 21:05 60.26430 5.22737 651 ft 227 kts 173°
2026-05-05 21:05 60.24861 5.23148 1104 ft 228 kts 173°
2026-05-05 21:05 60.23274 5.23585 1515 ft 235 kts 172°
2026-05-05 21:06 60.21573 5.24045 2250 ft 253 kts 173°
2026-05-05 21:06 60.19807 5.24588 2904 ft 261 kts 170°
2026-05-05 21:06 60.18022 5.25260 2998 ft 262 kts 169°
2026-05-05 21:06 60.16340 5.26531 3000 ft 261 kts 143°
2026-05-05 21:07 60.15182 5.29284 3007 ft 261 kts 112°
2026-05-05 21:07 60.14483 5.32607 2981 ft 258 kts 123°
2026-05-05 21:07 60.13103 5.34891 3004 ft 264 kts 160°
2026-05-05 21:07 60.11291 5.35312 3007 ft 262 kts 184°
2026-05-05 21:08 60.09476 5.35092 2995 ft 260 kts 181°
2026-05-05 21:08 60.07683 5.35302 2998 ft 256 kts 182°
2026-05-05 21:08 60.06004 5.34236 3009 ft 259 kts 219°
2026-05-05 21:08 60.04951 5.31362 3005 ft 260 kts 255°
2026-05-05 21:09 60.04939 5.27865 2998 ft 252 kts 291°
2026-05-05 21:09 60.05877 5.25034 2995 ft 238 kts 315°
2026-05-05 21:09 60.07069 5.22869 2968 ft 222 kts 324°
2026-05-05 21:09 60.08383 5.21563 3017 ft 203 kts 344°
2026-05-05 21:10 60.09710 5.21198 2981 ft 183 kts
2026-05-05 21:10 60.10907 5.21809 3013 ft 179 kts 19°
2026-05-05 21:10 60.12083 5.22712 3000 ft 181 kts 20°
2026-05-05 21:10 60.13248 5.23625 2993 ft 179 kts 20°
2026-05-05 21:11 60.14421 5.24542 2804 ft 181 kts 20°
2026-05-05 21:11 60.15566 5.25433 2606 ft 172 kts 18°
2026-05-05 21:11 60.16717 5.25642 2385 ft 167 kts 353°
2026-05-05 21:11 60.17891 5.25471 2186 ft 170 kts 356°
2026-05-05 21:12 60.19062 5.25246 1978 ft 167 kts 351°
2026-05-05 21:12 60.20190 5.24890 1571 ft 163 kts 350°
2026-05-05 21:12 60.21243 5.24536 1449 ft 143 kts 350°
2026-05-05 21:12 60.22221 5.24208 1507 ft 145 kts 350°
2026-05-05 21:13 60.23220 5.23873 1239 ft 145 kts 350°
2026-05-05 21:13 60.24216 5.23538 1011 ft 142 kts 350°
2026-05-05 21:13 60.25179 5.23215 818 ft 142 kts 349°
2026-05-05 21:13 60.26159 5.22885 618 ft 143 kts 349°
2026-05-05 21:14 60.27126 5.22560 409 ft 139 kts 350°
2026-05-05 21:14 60.28064 5.22246 237 ft 135 kts 350°
2026-05-05 21:14 60.28969 5.21938 168 ft 121 kts 351°
2026-05-05 21:14 60.29476 5.21768 155 ft 25 kts 351°
2026-05-05 21:15 60.29536 5.21748 153 ft 10 kts 350°
2026-05-05 21:15 60.29645 5.21713 150 ft 21 kts 355°
2026-05-05 21:15 60.29709 5.21794 150 ft 17 kts 75°
2026-05-05 21:15 60.29687 5.22009 154 ft 18 kts 154°
2026-05-05 21:16 60.29548 5.22075 159 ft 19 kts 168°
2026-05-05 21:16 60.29443 5.22117 163 ft 12 kts 169°
2026-05-05 21:16 60.29373 5.22142 166 ft 12 kts 175°
2026-05-05 21:16 60.29246 5.22170 171 ft 28 kts 171°
2026-05-05 21:17 60.29078 5.22273 180 ft 19 kts 122°
2026-05-05 21:17 60.28965 5.22383 179 ft 19 kts 171°
2026-05-05 21:17 60.28834 5.22425 179 ft 19 kts 171°
2026-05-05 21:17 60.28718 5.22464 177 ft 0 kts 170°
2026-05-05 21:18 60.28715 5.22465 177 ft 2 kts 169°
2026-05-05 21:18 60.28671 5.22574 176 ft 19 kts 93°
2026-05-05 21:19 60.28717 5.22728 178 ft 9 kts 327°
2026-05-05 21:19 60.28721 5.22602 178 ft 9 kts 264°
2026-05-05 21:19 60.28789 5.22447 179 ft 23 kts 347°
2026-05-05 21:19 60.28945 5.22389 179 ft 23 kts 351°
2026-05-05 21:20 60.29101 5.22342 183 ft 23 kts 352°
2026-05-05 21:20 60.29263 5.22284 176 ft 25 kts 349°
2026-05-05 21:20 60.29451 5.22218 164 ft 27 kts 351°
2026-05-05 21:20 60.29554 5.22297 155 ft 17 kts 71°
2026-05-05 21:21 60.29613 5.22411 154 ft 8 kts
2026-05-05 21:21 60.29646 5.22376 154 ft 4 kts 288°
2026-05-05 21:21 60.29649 5.22321 153 ft 5 kts 277°
2026-05-05 21:21 60.29645 5.22282 153 ft 0 kts 260°
2026-05-05 21:22 60.29645 5.22280 153 ft 0 kts 260°